Location: ?????
(33.6267°N, 35.4675°E)
Time: 01:51:57
(UTC+00:00)

CSL-04 Rocket - Pass Details

Date: 12 November 2019
Orbit: 806 x 860 km, 99.0° (Epoch: 06 December)

Event Time Altitude Azimuth Distance (km) Brightness Sun altitude
Rises 15:51:00 0° 152° (SSE) 3,378 6.7 -15.5°
Reaches altitude 10° 15:53:25 10° 148° (SSE) 2,438 5.9 -16.0°
Maximum altitude 15:58:38 52° 73° (ENE) 1,015 3.7 -17.1°
Drops below altitude 10° 16:03:49 10° 358° (N) 2,417 6.0 -18.2°
Sets 16:06:12 0° 353° (N) 3,346 6.8 -18.6°
